TimeEST,TemperatureF,Dew PointF,Humidity,Sea Level PressureIn,VisibilityMPH,Wind Direction,Wind SpeedMPH,Gust SpeedMPH,PrecipitationIn,Events,Conditions,WindDirDegrees,DateUTC
12:53 AM,35.1,32.0,89,30.17,10.0,North,4.6,-,N/A,,Clear,350,2012-11-04 04:53:00
1:53 AM,35.1,32.0,89,30.18,10.0,NNW,4.6,-,N/A,,Clear,340,2012-11-04 05:53:00
1:53 AM,34.0,30.9,89,30.17,10.0,North,6.9,-,N/A,,Clear,360,2012-11-04 06:53:00
2:53 AM,32.0,28.9,88,30.18,10.0,North,4.6,-,N/A,,Clear,350,2012-11-04 07:53:00
3:53 AM,30.9,28.9,92,30.18,10.0,North,4.6,-,N/A,,Clear,360,2012-11-04 08:53:00
4:53 AM,30.9,28.0,89,30.19,10.0,Calm,Calm,-,N/A,,Clear,0,2012-11-04 09:53:00
5:53 AM,30.9,28.0,89,30.19,10.0,North,3.5,-,N/A,,Clear,350,2012-11-04 10:53:00
6:53 AM,30.9,28.0,89,30.20,10.0,North,4.6,-,N/A,,Mostly Cloudy,350,2012-11-04 11:53:00
7:53 AM,32.0,28.0,85,30.22,10.0,North,4.6,-,N/A,,Mostly Cloudy,360,2012-11-04 12:53:00
8:53 AM,34.0,28.9,82,30.22,10.0,NNE,4.6,-,N/A,,Clear,20,2012-11-04 13:53:00
9:53 AM,37.9,28.0,68,30.22,10.0,NNE,6.9,-,N/A,,Clear,20,2012-11-04 14:53:00
10:53 AM,41.0,30.0,65,30.21,10.0,NNE,8.1,-,N/A,,Scattered Clouds,30,2012-11-04 15:53:00
11:53 AM,41.0,30.0,65,30.22,10.0,North,8.1,-,N/A,,Overcast,10,2012-11-04 16:53:00
12:53 PM,43.0,30.9,62,30.21,10.0,North,6.9,-,N/A,,Mostly Cloudy,360,2012-11-04 17:53:00
1:30 PM,42.8,30.2,61,30.18,10.0,NNW,8.1,-,N/A,,Mostly Cloudy,330,2012-11-04 18:30:00
1:53 PM,42.1,30.0,62,30.19,10.0,North,9.2,-,N/A,,Mostly Cloudy,350,2012-11-04 18:53:00
2:53 PM,43.0,30.9,62,30.18,10.0,North,4.6,-,N/A,,Overcast,350,2012-11-04 19:53:00
3:53 PM,44.1,30.9,60,30.18,10.0,NNW,6.9,-,N/A,,Overcast,330,2012-11-04 20:53:00
4:53 PM,42.1,30.0,62,30.18,10.0,North,4.6,-,N/A,,Mostly Cloudy,360,2012-11-04 21:53:00
5:53 PM,41.0,30.0,65,30.18,10.0,NNE,4.6,-,N/A,,Overcast,20,2012-11-04 22:53:00
6:53 PM,41.0,28.9,62,30.19,10.0,Calm,Calm,-,N/A,,Overcast,0,2012-11-04 23:53:00
7:53 PM,39.0,30.0,70,30.18,10.0,NE,3.5,-,N/A,,Scattered Clouds,50,2012-11-05 00:53:00
8:53 PM,37.0,28.9,73,30.19,10.0,Calm,Calm,-,N/A,,Clear,0,2012-11-05 01:53:00
9:53 PM,33.1,28.0,82,30.19,10.0,Calm,Calm,-,N/A,,Clear,0,2012-11-05 02:53:00
10:53 PM,32.0,28.9,88,30.18,9.0,Calm,Calm,-,N/A,,Clear,0,2012-11-05 03:53:00